Погода в Лазареве

Россия / Тульская область     53°51′14″N   37°29′17″E
темп.,
°C
ветер,
м/с
пор.,
м/с
влажн.,
%
обл.,
%
осадки,
мм/ч
давл.,
гПа
погр.,
м
24 января, пн
пн2400:00−14св36100100 0.1 103472
03:00−14св37100100 0.1 103487
06:00−6св5890100 0.1 1034486
09:00−7св5993100 0.1 1034481
12:00−6св5891100 0.1 1034468
15:00−7св489478 0.1 1033327
18:00−12св399758 0.0 1034134
21:00−14св379988 0.0 103398
25 января, вт
вт2500:00−16св2210099 0.0 103212
03:00−19ссв22100100 0.1 103111
06:00−21всв11100100 0.0 10299
09:00−21с11100100 0.0 10289
12:00−12ююв23935 0.0 1025109
15:00−10ю23935 0.0 1022140
18:00−17ююз229855 0.0 102119
21:00−17ююз349856 0.0 102059
26 января, ср
ср2600:00−16юз379715 0.0 101992
03:00−16юз3798100 0.0 1018102
06:00−12юз3896100 0.2 1017175
09:00−10зюз3696100 0.4 1017177
12:00−7зсз2494100 0.4 1017261
15:00−6сз3593100 0.6 1017425
18:00−9зсз3697100 0.1 101987
21:00−12зсз229998 0.3 101911
27 января, чт
чт2700:00−15зсз2210098 0.1 10209
03:00−18з11100100 0.1 10209
06:00−18зюз22100100 0.1 101917
09:00−17зюз11100100 0.1 101926
12:00−11ююз239492 0.0 1018145
15:00−10ююз359459 0.0 1016193
18:00−16ю359966 0.0 101656
21:00−15ю499754 0.0 1015126
28 января, пт
пт2800:00−14ю4109754 0.0 1014140
03:00−14ю4129563 0.0 1012191
06:00−12ю51195100 0.0 1010248
09:00−11ю51295100 0.1 1008273
12:00−7ююв61294100 0.1 1006328
15:00−6ююв61395100 0.3 1004452
18:00−5ююв61295100 0.8 1002417
21:00−5ю5996100 1.4 1001314